Location: Trois-Rivi�res
(46.3500°N, 72.5500°W)
Time: 22:48:07
(UTC-04:00)

Daily predictions for brighter satellites

Satellite Brightness Start Highest point End
(mag) Time Altitude Azimuth Time Altitude Azimuth Time Altitude Azimuth
Cosmos 1626 2.1 18:19:00 10° N 18:22:44 62° E 18:26:25 10° SSE
GP-B 3.3 18:20:52 10° NNE 18:25:13 50° E 18:29:32 10° SSE
Cosmos 1400 Rocket 2.8 18:21:59 10° N 18:26:02 70° ENE 18:29:59 10° SSE
Cosmos 1461 4.0 18:22:29 10° WSW 18:26:24 44° NW 18:30:31 10° NNE
Centaur D AC-29 4.2 18:15:25 10° WSW 18:27:20 19° SSW 18:32:00 10° SSE
SMAP 3.5 18:23:21 10° S 18:27:59 71° WSW 18:32:39 10° NNW
SKYMED 2 4.2 18:25:22 10° NNE 18:29:23 35° E 18:33:22 10° SSE
MOS 1 4.4 18:25:06 10° SSE 18:30:40 61° ENE 18:36:17 10° N
Cosmos 1743 Rocket 3.5 18:27:08 10° N 18:31:31 78° E 18:35:56 10° SSE
BREEZE-M DEB (TANK) 4.1 18:15:02 10° WSW 18:31:33 82° S 18:36:06 10° E
SL-8 R/B 4.0 18:30:09 10° SW 18:34:52 56° SSE 18:39:30 10° ENE
USA 116 4.5 18:29:46 10° NNE 18:34:58 78° ESE 18:40:21 10° S
Cosmos 2360 Rocket 2.2 18:29:42 10° NNW 18:35:24 89° ENE 18:41:05 10° SSE
Cosmos 2221 3.4 18:32:52 10° SSE 18:36:33 28° E 18:40:16 10° NNE
Ariane Rocket 4.3 18:35:16 10° S 18:40:09 46° W 18:45:05 10° NNW
Cosmos 921 Rocket 3.0 18:36:00 10° NNW 18:40:28 64° ENE 18:44:48 10° SSE
SL-08 R/B 4.4 18:34:58 10° S 18:41:07 80° E 18:47:15 10° N
COSMOS 2428 2.9 18:36:39 10° NNW 18:42:12 50° ENE 18:47:42 10° SE
Cosmos 1842 Rocket 3.5 18:38:21 10° S 18:42:48 72° E 18:47:15 10° NNE
Cosmos 2084 4.5 18:40:24 10° NNW 18:43:32 24° NE 18:46:00 13° E
Cosmos 2322 Rocket 4.1 18:38:57 10° NW 18:43:58 34° WSW 18:48:58 10° S
ATLAS 5 CENTAUR R/B 4.3 18:41:36 10° NW 18:44:08 13° N 18:46:48 10° NNE
CZ-4 R/B 4.5 18:40:31 10° SSE 18:44:40 88° W 18:48:50 10° NNW
Cosmos 1300 4.5 18:42:58 10° ESE 18:49:00 - NNE 18:44:41 13° E
CZ-4 R/B 2.3 18:40:38 10° S 18:44:46 56° W 18:48:52 10° NNW
Cosmos 2333 Rocket 3.0 18:40:01 10° NNW 18:45:06 31° NE 18:50:11 10° ESE
Cosmos 44 Rocket 4.2 18:41:32 10° S 18:45:30 27° ESE 18:49:27 10° ENE
FREGAT/IRIS 4.2 18:47:06 14° E 18:48:18 18° ENE 18:50:24 10° NNE
Cosmos 1833 4.2 18:43:44 10° SSW 18:49:24 78° ESE 18:55:04 10° NNE
Cosmos 2219 4.0 18:46:39 10° SSE 18:51:33 30° ESE 18:56:29 10° NE
CZ-4C R/B 3.0 18:47:30 10° S 18:51:53 28° ESE 18:56:39 10° ENE
Cosmos 1500 Rocket 3.6 18:48:04 10° N 18:52:26 83° W 18:56:45 10° S
FENGYUN 3A 3.7 18:54:26 10° SSE 18:59:44 61° ENE 19:05:05 10° N
SPOT 3 Rocket 3.6 18:59:42 10° SSE 19:04:54 87° WSW 19:10:10 10° NNW
NOSS 0 Rocket 4.4 18:59:58 10° NNW 19:05:48 41° NE 19:10:37 15° ESE
Cosmos 468 4.5 19:01:34 10° S 19:06:42 65° ESE 19:11:54 10° NNE
EO 1 Del DPAF 3.5 19:04:41 10° N 19:08:32 70° WNW 19:12:20 10° SSW
Resurs 01 Rocket 3.1 19:09:57 17° ENE 19:09:57 17° ENE 19:12:43 10° NNE
Cosmos 2322 4.3 19:04:54 10° NNW 19:10:34 63° WSW 19:16:11 10° S
FengYun 1-2 T 4.4 19:05:45 10° SE 19:10:58 47° ENE 19:16:12 10° N
Cosmos 1452 Rocket 4.2 19:05:50 10° NNW 19:11:00 59° WSW 19:16:09 10° S
Cosmos 1315 Rocket 3.2 19:07:54 10° NNW 19:11:58 70° W 19:16:03 10° S
COSMO-SKYMED 1 2.8 19:13:12 10° N 19:17:33 73° WNW 19:21:52 10° SSW
Aureole 2 Rocket 2.8 19:13:58 10° NNW 19:17:46 52° ENE 19:20:31 18° SE
Sich 1 3.3 19:15:32 10° N 19:19:43 43° ENE 19:23:42 11° SSE
Cosmos 2098 Rocket 3.5 19:15:24 10° S 19:19:57 59° E 19:25:47 10° NNE
Meteor 2-10 4.4 19:17:32 10° SSE 19:22:07 36° E 19:26:47 10° NNE
USA 234 4.1 19:17:51 18° ENE 19:22:10 37° N 19:28:05 10° NW
Cosmos 2219 Rocket 2.2 19:17:50 10° NNW 19:23:25 63° ENE 19:28:19 13° SE
MOS 1-B Rocket 4.4 19:22:16 20° ESE 19:25:42 38° ENE 19:31:23 10° N
ALOS 2.4 19:21:07 10° S 19:25:47 78° WSW 19:30:29 10° NNW
Cosmos 1726 2.0 19:25:03 10° S 19:28:40 60° E 19:32:20 10° NNE
Cosmos 1110 Rocket 4.2 19:23:53 10° NNW 19:29:04 49° ENE 19:31:54 25° SE
Iridium 4 Rocket 3.7 19:24:31 10° S 19:30:09 85° E 19:36:05 10° N
Cosmos 1805 Rocket 3.4 19:26:49 10° N 19:31:14 85° E 19:35:38 10° S
SJ-6B 2.7 19:35:42 43° ESE 19:36:35 55° ENE 19:40:15 10° N
Lacrosse 5 rocket 3.4 19:33:41 10° NW 19:36:54 20° N 19:38:40 16° NNE
Cosmos 1666 Rocket 3.4 19:35:57 10° N 19:40:19 68° E 19:43:26 18° SSE
BREEZE-M DEB (TANK) 4.0 19:25:03 10° WNW 19:45:38 88° SSW 19:48:19 34° ESE
Cosmos 1633 Rocket 2.9 19:42:25 10° N 19:46:51 66° E 19:48:39 34° SSE
Cosmos 1821 Rocket 4.0 19:42:26 10° S 19:48:36 87° W 19:54:56 10° N
Cosmos 1934 Rocket 3.9 19:44:14 10° S 19:50:34 76° E 19:56:56 10° NNE
Cosmos 1048 Rocket 4.1 19:45:43 10° SSW 19:50:50 75° WNW 19:55:58 10° NNE
Gbstr 26 Del rocket 3.9 19:46:24 10° WNW 19:51:24 63° SSW 19:54:25 29° SE
Abrixas rocket 2.8 19:52:33 10° WNW 19:55:20 53° NW 19:55:20 53° NW
In-Cosmos 22 Rocket 4.1 19:50:58 10° N 19:56:43 77° ENE 20:01:27 16° SSE
APEX 3.7 19:54:18 10° SW 19:57:10 39° WNW 19:57:10 39° WNW
Cosmos 2237 Rocket 2.2 19:51:57 10° NNW 19:57:39 65° ENE 19:59:13 46° ESE
Envisat 3.3 19:58:34 45° ENE 19:58:34 45° ENE 20:03:10 10° N
Cosmos 44 3.2 19:54:12 10° SW 19:58:31 69° NW 20:00:11 36° NNE
H-2A R/B 3.2 19:55:44 15° S 19:58:51 62° W 20:02:47 10° NNW
Thor Agena Rocket 3.6 19:59:12 10° NNE 20:04:19 74° WNW 20:09:20 10° SSW
CSL-04 DEB 4.4 20:04:33 56° S 20:05:21 78° WSW 20:09:24 10° NNW
Cosmos 2227 Rocket 3.3 20:02:03 10° S 20:04:49 27° SSE 20:04:49 27° SSE
SL-16 R/B 2.9 20:03:31 10° NNW 20:08:15 36° NE 20:08:15 36° NE
BREEZE-M DEB (TANK) 4.1 20:06:49 10° WSW 20:07:21 17° WSW 20:07:21 17° WSW
Meteor 2-3 Rocket 3.7 20:09:35 10° N 20:15:18 61° ENE 20:15:18 61° ENE
Cosmos 2123 Rocket 4.2 20:09:29 10° NNW 20:15:43 72° W 20:21:57 10° S
SL-8 R/B 3.7 20:12:34 10° W 20:17:24 72° N 20:17:29 72° N
Cosmos 1300 3.5 20:16:16 10° SSW 20:19:58 50° WNW 20:20:01 50° WNW
Cosmos 1980 3.7 20:15:51 10° NNW 20:21:31 81° WSW 20:22:46 56° S
Cosmos 1605 Rocket 3.8 20:16:51 10° S 20:22:57 90° E 20:29:05 10° N
Cosmos 2084 4.3 20:19:33 10° NW 20:22:37 42° W 20:22:37 42° W
Cosmos 1331 Rocket 4.2 20:19:20 10° NNW 20:24:32 68° WSW 20:25:41 52° SSW
Cosmos 44 Rocket 4.2 20:22:19 10° WSW 20:26:49 45° NW 20:28:13 35° N
USA 267 3.5 20:28:50 47° SSE 20:28:50 47° SSE 20:34:16 10° SSW
Cosmos 967 Rocket 4.4 20:22:56 10° NW 20:29:26 83° NE 20:30:12 71° SE
Cosmos 2333 Rocket 3.0 20:24:05 10° NW 20:29:37 50° WSW 20:32:29 27° S
ATLAS 5 CENTAUR R/B 4.1 20:27:23 10° NNW 20:31:01 18° NNE 20:31:01 18° NNE
Cosmos 2219 4.1 20:29:57 10° SW 20:35:29 48° WNW 20:41:03 10° NNE
Meteor 2-2 Rocket 4.5 20:33:55 10° SSW 20:39:35 67° WNW 20:45:13 10° N
CZ-4C R/B 2.7 20:34:41 10° WSW 20:39:57 56° NW 20:41:54 39° NNE
Cosmos 2297 Rocket 4.3 20:39:17 10° SSW 20:39:56 14° SSW 20:39:56 14° SSW
Resurs 01 Rocket 3.0 20:47:33 34° NW 20:47:33 34° NW 20:50:15 10° NNW
USA 234 3.5 21:05:13 62° N 21:05:13 62° N 21:11:03 10° NW
Cosmos 2219 Rocket 4.3 21:02:44 10° NW 21:06:51 21° W 21:10:07 13° SW
Lacrosse 5 rocket 4.3 21:13:43 10° NW 21:14:21 13° NW 21:14:21 13° NW
Cosmos 2237 Rocket 4.2 21:37:00 10° NW 21:41:05 21° W 21:41:05 21° W
SL-16 R/B 4.2 21:47:40 10° NW 21:50:09 24° NW 21:50:09 24° NW
